This demonstration page uses our WeatherBlox Daily Observations layout. Learn more.

Left ArrowRight Arrow

Hourly Observations for January 17, 2018

Temp ( °F °C ) Dew Point ( °F °C ) Humidity (%) Winds ( mph kmh ) Pressure ( in mb ) Visibility ( mi km ) Precip ( " mm )
12:53 am 00:53 Cloudy 9 -12.8 3 -16.1 77 77 Calm 30.61 1037 10 16 0.00 0.00
1:53 am 01:53 Cloudy 8 -13.3 3 -16.1 80 80 VRB 3 6 30.61 1037 8 13 0.00 0.03
2:36 am 02:36 Cloudy with Light Snow 9 -12.8 4 -15.6 80 80 W 7 11 30.62 1037 6 10 0.00 0.03
2:53 am 02:53 Cloudy with Light Snow 9 -12.8 4 -15.6 80 80 W 5 7 30.60 1036 6 10 0.00 0.03
3:53 am 03:53 Cloudy with Haze 9 -12.8 4 -15.6 80 80 W 3 6 30.61 1037 6 10 0.00 0.03
4:19 am 04:19 Cloudy 9 -12.8 4 -15.6 80 80 W 5 7 30.62 1037 8 13 0.00 0.03
4:53 am 04:53 Cloudy 9 -12.8 4 -15.6 80 80 W 7 11 30.61 1037 10 16 0.00 0.03
5:53 am 05:53 Cloudy 9 -12.8 5 -15 84 84 W 6 9 30.61 1037 9 14 0.00 0.00
6:53 am 06:53 Cloudy 9 -12.8 6 -14.4 88 88 WSW 6 9 30.62 1037 8 13 0.00 0.00
7:53 am 07:53 Cloudy 10 -12.2 6 -14.4 84 84 W 6 9 30.62 1037 8 13 0.00 0.00
8:23 am 08:23 Cloudy with Light Snow 10 -12.2 6 -14.4 84 84 W 3 6 30.65 1038 2 3 0.00 0.03
8:31 am 08:31 Cloudy with Light Snow 10 -12.2 7 -13.9 87 87 W 6 9 30.65 1038 2 2 0.00 0.03
8:38 am 08:38 Cloudy with Light Snow 10 -12.2 6 -14.4 84 84 W 6 9 30.65 1038 2 3 0.00 0.03
8:49 am 08:49 Cloudy with Light Snow 10 -12 7 -14 85 85 W 7 11 30.65 1038 2 2 0.00 0.03
8:53 am 08:53 Cloudy with Light Snow 10 -12.2 6 -14.4 84 84 W 6 9 30.62 1037 1 2 0.00 0.03
9:44 am 09:44 Cloudy with Light Snow 11 -11.7 6 -14.4 81 81 WNW 7 11 30.65 1038 2 2 0.00 0.03
9:53 am 09:53 Cloudy with Light Snow 11 -11.7 6 -14.4 81 81 WNW 7 11 30.63 1037 2 2 0.00 0.03
10:00 am 10:00 Cloudy with Light Snow 11 -11.7 6 -14.4 81 81 WNW 8 13 30.65 1038 2 3 0.00 0.03
10:07 am 10:07 Cloudy with Light Snow 12 -11.1 6 -14.4 77 77 W 7 11 30.65 1038 3 4 0.00 0.03
10:14 am 10:14 Cloudy with Light Snow 12 -11.1 6 -14.4 77 77 W 6 9 30.65 1038 3 5 0.00 0.03
10:53 am 10:53 Cloudy 12 -11.1 6 -14.4 77 77 WNW 5 7 30.64 1038 7 11 0.00 0.03
11:53 am 11:53 Partly Cloudy 16 -8.9 8 -13.3 71 71 WSW 7 11 30.63 1037 10 16 0.00 0.00
12:53 pm 12:53 Mostly Sunny 17 -8.3 9 -12.8 70 70 VRB 6 9 30.61 1037 10 16 0.00 0.00
1:53 pm 13:53 Mostly Sunny 19 -7.2 10 -12.2 68 68 WSW 5 7 30.58 1036 10 16 0.00 0.00
2:53 pm 14:53 Mostly Sunny 21 -6.1 10 -12.2 62 62 VRB 6 9 30.57 1035 10 16 0.00 0.00
3:53 pm 15:53 Mostly Sunny 22 -5.6 11 -11.7 63 63 WSW 7 11 30.57 1035 10 16 0.00 0.00
4:53 pm 16:53 Sunny 21 -6.1 11 -11.7 65 65 WSW 6 9 30.56 1035 10 16 0.00 0.00
5:53 pm 17:53 Clear 18 -7.8 10 -12.2 71 71 WSW 5 7 30.55 1035 10 16 0.00 0.00
6:53 pm 18:53 Clear 17 -8.3 9 -12.8 70 70 WSW 7 11 30.55 1035 10 16 0.00 0.00
7:53 pm 19:53 Clear 15 -9.4 9 -12.8 77 77 WSW 5 7 30.54 1034 10 16 0.00 0.00
8:53 pm 20:53 Clear 13 -10.6 9 -12.8 84 84 SW 3 6 30.53 1034 10 16 0.00 0.00
9:53 pm 21:53 Clear 15 -9.4 9 -12.8 77 77 SW 5 7 30.50 1033 10 16 0.00 0.00
10:53 pm 22:53 Clear 16 -8.9 10 -12.2 77 77 SW 6 9 30.49 1033 10 16 0.00 0.00
11:53 pm 23:53 Clear 15 -9.4 9 -12.8 77 77 WSW 7 11 30.48 1032 10 16 0.00 0.00

Powered by AerisWeather